Location: 相模原市立博物館
(35.5593°N, 139.3931°E)
Time: 12:10:35
(UTC+09:00)

Envisat - Pass Details

Date: 25 October 2021
Orbit: 764 x 766 km, 98.2° (Epoch: 30 November)

Event Time Altitude Azimuth Distance (km) Brightness Sun altitude
Rises 04:22:05 0° 18° (NNE) 3,236 6.5 -20.0°
Reaches altitude 10° 04:24:28 10° 24° (NNE) 2,306 5.7 -19.5°
Maximum altitude 04:29:25 51° 100° (E) 958 3.9 -18.5°
Drops below altitude 10° 04:34:19 10° 176° (S) 2,290 5.5 -17.5°
Sets 04:36:40 0° 181° (S) 3,212 6.3 -17.0°
